Miscellaneous Local Product
Issued by NWS Hastings, NE

Home | Current Version | Previous Version | Graphics & Text | Print | Product List | Glossary On
Versions: 1 2 3 4 5 6 7 8 9 10 11 12 13 14 15 16 17 18 19 20 21 22 23 24 25 26 27 28 29 30 31 32 33 34 35 36 37 38 39 40 41 42 43 44 45 46 47 48 49 50
000
AXUS43 KGID 250002
MISGRI

GID CWA HOURLY WEATHER ROUNDUP
NATIONAL WEATHER SERVICE HASTINGS NE
700 PM CDT FRI OCT 24 2014

NOTE: "FAIR" INDICATES FEW OR NO CLOUDS BELOW 12,000 FEET WITH NO
SIGNIFICANT WEATHER AND/OR OBSTRUCTIONS TO VISIBILITY.

...SOUTH CENTRAL NEBRASKA...

CITY           SKY/WX    TMP DP  RH WIND       PRES   REMARKS
GRAND ISLAND   CLEAR     64  48  56 NE5       29.97R
HASTINGS       CLEAR     66  47  50 NE6       29.97R
KEARNEY        CLEAR     64  46  52 NE6       29.99R
ORD            CLEAR     59  43  55 CALM      29.97R
YORK           CLEAR     66  52  59 N3        29.97R HAZE
AURORA         CLEAR     66  48  53 N3        29.97R
LEXINGTON      CLEAR     72  37  28 NW3       29.98S
HOLDREGE       CLEAR     75  31  20 CALM      29.98R
HEBRON         CLEAR     68  50  52 CALM      29.95R

...NEBRASKA PANHANDLE...

CITY           SKY/WX    TMP DP  RH WIND       PRES   REMARKS
CHADRON        CLEAR     70  38  31 NE5       30.01R
ALLIANCE       CLEAR     66  37  34 E7        30.03R
SCOTTSBLUFF    CLEAR     70  32  24 NW7       30.03S
SIDNEY         CLEAR     67  34  29 NE5       30.09R

...WESTERN AND NORTH CENTRAL NEBRASKA...

CITY           SKY/WX    TMP DP  RH WIND       PRES   REMARKS
VALENTINE      CLEAR     70  34  26 N5        29.99R
AINSWORTH      HAZE      64  39  38 CALM      29.99S VSB 3/4
ONEILL         PTCLDY    67  40  36 CALM      29.99R HAZE
BROKEN BOW     CLEAR     64  40  41 N5        29.99R
IMPERIAL       CLEAR     72  37  28 SE5       30.04R
NORTH PLATTE   CLEAR     66  42  41 CALM      30.00R
MCCOOK         CLEAR     72  33  24 NW8       30.01R

...EASTERN NEBRASKA...

CITY           SKY/WX    TMP DP  RH WIND       PRES   REMARKS
NORFOLK        PTCLDY    63  48  58 SW3       29.96R
SO SIOUX CITY  PTCLDY    64  46  52 N5        29.94R
TEKAMAH        CLEAR     66  51  58 W3        29.93R
COLUMBUS       CLEAR     63  48  59 CALM      29.97R
ALBION         PTCLDY    63  42  47 CALM      29.98R
OMAHA EPPLEY   MOCLDY    69  56  62 CALM      29.93R
OFFUTT AFB     PTCLDY    60  60  99 NE1       29.93R
MILLARD        PTCLDY    67  59  77 CALM      29.93R
LINCOLN        PTCLDY    63  54  72 N5        29.95R
NEBRASKA CITY  PTCLDY    69  56  64 N5        29.94R
BEATRICE       CLEAR     68  57  67 CALM      29.94R
FALLS CITY     PTCLDY    73  61  65 W6        29.91R

...NORTHERN KANSAS...

CITY           SKY/WX    TMP DP  RH WIND       PRES   REMARKS
GOODLAND       CLEAR     74  34  23 CALM      30.07S
HILL CITY      CLEAR     75  40  28 E3        30.00R
NORTON         CLEAR     75  28  17 SW3       29.98
PHILLIPSBURG   CLEAR     79  43  27 CALM      29.97R HAZE
SMITH CENTER   CLEAR     75  45  33 S3        29.97R
BELOIT         CLEAR     73  48  40 CALM      29.94R
HAYS           CLEAR     75  54  46 SE3       29.99R
RUSSELL        CLEAR     74  55  51 S6        29.97R
CONCORDIA      CLEAR     71  53  52 W5        29.95R
SALINA         CLEAR     76  62  62 S10       29.95S
TOPEKA         CLEAR     74  63  68 S3        29.93S



USA.gov is the U.S. government's official web portal to all federal, state and local government web resources and services.